Westerly, RI

10:29 PM EDT on August 30, 2016 (GMT -0400)
Westerly State

Weather History for KWST - March, 2013

Change the Weather History Date:

Saturday, March 30, 2013

  Actual Average (KGON) Record (KGON)
Temperature  
Mean Temperature 46 °F -  
Max Temperature 55 °F 51 °F 75 °F (1977)
Min Temperature 39 °F 33 °F 13 °F (1970)
Degree Days  
Heating Degree Days 18    
Moisture  
Dew Point 28 °F    
Average Humidity 49    
Maximum Humidity 68    
Minimum Humidity 25    
Precipitation  
Precipitation 0.00 in - - ()
Sea Level Pressure  
Sea Level Pressure 30.08 in    
Wind  
Wind Speed 6 mph (WNW)    
Max Wind Speed 13 mph    
Max Gust Speed 24 mph    
Visibility 10 miles    
Events      
Averages and records for this station are not official NWS values.
T = Trace of Precipitation, MM = Missing Value Source: NWS Daily Summary

Daily Weather History Graph

Daily Weather History Graph

Search for Another Location

Airport or City:

Trip Planner

Search our weather history database for the weather conditions in past years. The results will help you decide how hot, cold, wet, or windy it might be!

Date:

Astronomy

Mar. 30, 2013 Rise Set
Actual Time 6:33 AM EDT 7:10 PM EDT
Civil Twilight 6:05 AM EDT 7:38 PM EDT
Nautical Twilight 5:32 AM EDT 8:11 PM EDT
Astronomical Twilight 4:58 AM EDT 8:45 PM EDT
Moon 11:16 PM EDT (3/30) 8:23 AM EDT (3/30)
Length of Visible Light 13h 32m
Length of Day
12h 37m
Waning Gibbous, 86% of the Moon is Illuminated
Mar 30
Waning Gibbous
Apr 3
Last Quarter
Apr 10
New
Apr 18
First Quarter
Apr 25
Full

Hourly Weather History & Observations

Time (EDT) Temp. Windchill Dew Point Humidity Pressure Visibility Wind Dir Wind Speed Gust Speed Precip Events Conditions
12:53 AM 45.0 °F 43.5 °F 27.0 °F 49% 30.07 in 10.0 mi Variable 3.5 mph - N/A   Overcast
1:53 AM 44.1 °F 42.5 °F 28.0 °F 53% 30.07 in 10.0 mi Variable 3.5 mph - N/A   Overcast
2:53 AM 44.1 °F 42.5 °F 28.9 °F 55% 30.07 in 10.0 mi NW 3.5 mph - N/A   Overcast
3:53 AM 43.0 °F 41.3 °F 28.9 °F 58% 30.07 in 10.0 mi Variable 3.5 mph - N/A   Overcast
4:53 AM 43.0 °F 40.3 °F 28.9 °F 58% 30.07 in 10.0 mi NW 4.6 mph - N/A   Overcast
5:53 AM 42.1 °F 39.2 °F 28.9 °F 60% 30.07 in 10.0 mi NNW 4.6 mph - N/A   Overcast
6:53 AM 39.9 °F 35.8 °F 28.9 °F 65% 30.09 in 10.0 mi Variable 5.8 mph - N/A   Clear
7:53 AM 42.1 °F 36.1 °F 28.9 °F 60% 30.10 in 10.0 mi NNW 10.4 mph - N/A   Clear
8:53 AM 46.0 °F 41.9 °F 28.0 °F 50% 30.11 in 10.0 mi NNW 8.1 mph - N/A   Clear
9:53 AM 48.9 °F - 26.1 °F 41% 30.11 in 10.0 mi NNW 9.2 mph - N/A   Clear
10:53 AM 52.0 °F - 24.1 °F 34% 30.10 in 10.0 mi NNW 8.1 mph - N/A   Clear
11:53 AM 52.0 °F - 23.0 °F 32% 30.09 in 10.0 mi NNW 8.1 mph - N/A   Scattered Clouds
12:53 PM 54.0 °F - 19.0 °F 25% 30.07 in 10.0 mi Variable 4.6 mph - N/A   Scattered Clouds
1:53 PM 54.0 °F - 26.1 °F 34% 30.06 in 10.0 mi Variable 3.5 mph 19.6 mph N/A   Clear
2:53 PM 52.0 °F - 28.0 °F 40% 30.05 in 10.0 mi WSW 12.7 mph 24.2 mph N/A   Partly Cloudy
3:53 PM 51.1 °F - 28.0 °F 41% 30.04 in 10.0 mi WSW 12.7 mph 24.2 mph N/A   Mostly Cloudy
4:53 PM 52.0 °F - 23.0 °F 32% 30.04 in 10.0 mi WSW 10.4 mph 19.6 mph N/A   Partly Cloudy
5:53 PM 50.0 °F - 27.0 °F 41% 30.05 in 10.0 mi WSW 10.4 mph 18.4 mph N/A   Partly Cloudy
6:53 PM 48.0 °F - 28.0 °F 46% 30.06 in 10.0 mi WSW 9.2 mph - N/A   Clear
7:53 PM 46.9 °F - 30.0 °F 52% 30.08 in 10.0 mi WSW 3.5 mph - N/A   Clear
8:53 PM 44.1 °F 42.5 °F 33.1 °F 65% 30.10 in 10.0 mi WSW 3.5 mph - N/A   Clear
9:53 PM 44.1 °F 41.5 °F 34.0 °F 68% 30.12 in 10.0 mi WSW 4.6 mph - N/A   Clear
10:53 PM 45.0 °F 40.6 °F 30.9 °F 58% 30.13 in 10.0 mi West 8.1 mph - N/A   Clear
11:53 PM 43.0 °F 41.3 °F 32.0 °F 65% 30.12 in 10.0 mi West 3.5 mph - N/A   Clear